Location: Linz
(48.3300°N, 14.3000°E)
Time: 06:47:36
(UTC+01:00)

OTV 5 (USA 277) - Pass Details

Date: 18 November 2017
Orbit: 404 x 417 km, 43.0° (Epoch: 07 September)

Event Time Altitude Azimuth Distance (km) Brightness Sun altitude
Exits shadow 04:53:27 21° 158° (SSE) 970 ? -23.2°
Drops below altitude 10° 04:55:05 10° 134° (SE) 1,454 ? -22.9°
Sets 04:57:22 0° 121° (ESE) 2,311 ? -22.6°
